QPF
0.00 0.00 0.00 0.00 0.00 0.00 0.00 0.00 0.00 0.00 0.00 0.00 0.00 0.00 0.00 0.00 0.00 0.00 0.00 0.00 0.00 0.00 0.00 0.00 0.00 0.00 0.00 0.00 0.00 0.00 0.00 0.00 0.00 0.00 0.00 0.00 0.00 0.00 0.00 0.00 0.00 0.00 0.00 0.00 0.00 0.00 0.00
0.00 0.00 0.00 0.00 0.00 0.00 0.00 0.00 0.00 0.00 0.00 0.00 0.00 0.00 0.00 0.00 0.00 0.00 0.00 0.00 0.00 0.00 0.00 0.00 0.00 0.00 0.00 0.00 0.00 0.00 0.00 0.00 0.00 0.00 0.00 0.00 0.00 0.00 0.00 0.00 0.00 0.00 0.00 0.00 0.00 0.00 0.00
0.00 0.00 0.00 0.00 0.00 0.00 0.00 0.00 0.00 0.00 0.00 0.00 0.00 0.00 0.00 0.00 0.00 0.00 0.00 0.00 0.00 0.00 0.00 0.00 0.00 0.00 0.00 0.00 0.00 0.00 0.00 0.00 0.00 0.00 0.00 0.00 0.00 0.00 0.00 0.00 0.00 0.00 0.00 0.00 0.00 0.00 0.00
0.00 0.00 0.00 0.00 0.00 0.00 0.00 0.00 0.00 0.00 0.00 0.00 0.00 0.00 0.00 0.00 0.00 0.00 0.00 0.00 0.00 0.00 0.00 0.00 0.00 0.00 0.00 0.00 0.00 0.00 0.00 0.00 0.00 0.00 0.00 0.00 0.00 0.00 0.00 0.00 0.00 0.00 0.00 0.00 0.00 0.00 0.00
0.00 0.00 0.00 0.00 0.00 0.00 0.00 0.00 0.00 0.00 0.00 0.00 0.00 0.00 0.00 0.00 0.00 0.00 0.00 0.00 0.00 0.00 0.00 0.00 0.00 0.00 0.00 0.00 0.00 0.00 0.00 0.00 0.00 0.00 0.00 0.00 0.00 0.00 0.00 0.00 0.00 0.00 0.00 0.00 0.00 0.00 0.00
0.00 0.00 0.01 0.01 0.01 0.00 0.00 0.00 0.00 0.00 0.00 0.00 0.00 0.00 0.00 0.00 0.00 0.00 0.00 0.00 0.00 0.00 0.00 0.00 0.00 0.00 0.00 0.00 0.00 0.00 0.00 0.00 0.00 0.00 0.00 0.00 0.00 0.00 0.00 0.00 0.00 0.00 0.00 0.00 0.00 0.00 0.00
0.00 0.00 0.00 0.00 0.01 0.00 0.00 0.00 0.00 0.00 0.00 0.00 0.00 0.00 0.00 0.00 0.00 0.00 0.00 0.00 0.00 0.00 0.00 0.00 0.00 0.00 0.00 0.00 0.00 0.00 0.00 0.00 0.00 0.00 0.00 0.00 0.00 0.00 0.00 0.00 0.00 0.00 0.00 0.00 0.00 0.00 0.00
0.00 0.00 0.00 0.00 0.00 0.00 0.01 0.00 0.00 0.00 0.00 0.00 0.00 0.00 0.00 0.00 0.00 0.00 0.00 0.00 0.00 0.00 0.00 0.00 0.00 0.00 0.00 0.00 0.00 0.00 0.00 0.00 0.00 0.00 0.00 0.00 0.00 0.00 0.00 0.00 0.00 0.00 0.00 0.00 0.00 0.00 0.00
0.01 0.01 0.00 0.00 0.00 0.00 0.00 0.01 0.01 0.00 0.00 0.00 0.00 0.00 0.00 0.00 0.00 0.00 0.00 0.00 0.00 0.00 0.00 0.00 0.00 0.00 0.00 0.00 0.00 0.00 0.00 0.00 0.00 0.00 0.00 0.00 0.00 0.00 0.01 0.00 0.00 0.00 0.00 0.00 0.00 0.00 0.00
0.00 0.00 0.01 0.01 0.01 0.00 0.00 0.00 0.00 0.00 0.00 0.00 0.00 0.00 0.00 0.00 0.00 0.00 0.00 0.00 0.00 0.00 0.00 0.00 0.00 0.00 0.00 0.00 0.00 0.00 0.00 0.00 0.00 0.00 0.00 0.00 0.00 0.00 0.00 0.00 0.00 0.00 0.00 0.00 0.00 0.00 0.00
0.01 0.01 0.01 0.01 0.01 0.00 0.00 0.00 0.00 0.00 0.00 0.00 0.00 0.00 0.00 0.00 0.00 0.00 0.00 0.00 0.00 0.00 0.00 0.00 0.00 0.00 0.00 0.00 0.00 0.00 0.00 0.00 0.00 0.00 0.00 0.01 0.01 0.01 0.00 0.00 0.00 0.00 0.00 0.00 0.00 0.00 0.00
0.00 0.00 0.00 0.00 0.01 0.00 0.00 0.00 0.00 0.00 0.00 0.00 0.00 0.00 0.00 0.00 0.00 0.00 0.00 0.00 0.00 0.01 0.00 0.00 0.00 0.00 0.00 0.00 0.00 0.00 0.00 0.00 0.00 0.00 0.00 0.00 0.01 0.03 0.01 0.00 0.00 0.00 0.00 0.00 0.00 0.00 0.00
0.00 0.00 0.00 0.00 0.00 0.00 0.00 0.00 0.01 0.00 0.00 0.00 0.00 0.00 0.00 0.00 0.00 0.00 0.00 0.00 0.01 0.00 0.00 0.00 0.00 0.00 0.00 0.00 0.00 0.00 0.00 0.00 0.00 0.00 0.00 0.00 0.00 0.00 0.00 0.00 0.00 0.00 0.03 0.04 0.02 0.00 0.00
0.00 0.00 0.00 0.00 0.00 0.01 0.01 0.01 0.00 0.00 0.00 0.00 0.00 0.00 0.00 0.00 0.00 0.00 0.00 0.01 0.01 0.00 0.00 0.00 0.00 0.00 0.00 0.00 0.00 0.00 0.00 0.00 0.00 0.00 0.00 0.00 0.00 0.00 0.00 0.00 0.00 0.00 0.01 0.03 0.03 0.01 0.00
0.00 0.00 0.00 0.00 0.00 0.00 0.00 0.00 0.01 0.01 0.01 0.00 0.00 0.00 0.00 0.00 0.00 0.00 0.02 0.01 0.00 0.00 0.00 0.00 0.00 0.00 0.00 0.00 0.00 0.00 0.00 0.00 0.00 0.00 0.00 0.00 0.00 0.00 0.00 0.00 0.02 0.03 0.02 0.00 0.05 0.02 0.01
0.00 0.00 0.00 0.00 0.00 0.00 0.00 0.00 0.01 0.01 0.00 0.00 0.00 0.00 0.00 0.00 0.00 0.01 0.04 0.01 0.00 0.00 0.00 0.00 0.00 0.00 0.00 0.00 0.00 0.00 0.00 0.00 0.00 0.00 0.00 0.00 0.00 0.00 0.00 0.00 0.00 0.01 0.01 0.12 0.19 0.04 0.00
0.00 0.00 0.00 0.00 0.00 0.00 0.00 0.00 0.00 0.00 0.00 0.01 0.00 0.01 0.00 0.00 0.03 0.04 0.03 0.00 0.00 0.00 0.00 0.00 0.00 0.00 0.00 0.00 0.00 0.00 0.01 0.02 0.00 0.00 0.00 0.00 0.00 0.00 0.00 0.00 0.00 0.00 0.03 0.11 0.06 0.01 0.00
0.00 0.00 0.00 0.00 0.00 0.00 0.00 0.00 0.00 0.00 0.02 0.01 0.02 0.02 0.00 0.04 0.03 0.02 0.00 0.00 0.00 0.00 0.00 0.00 0.00 0.00 0.00 0.00 0.00 0.00 0.00 0.01 0.00 0.00 0.00 0.00 0.00 0.00 0.00 0.00 0.01 0.00 0.00 0.02 0.09 0.05 0.00
0.00 0.00 0.00 0.00 0.00 0.00 0.00 0.00 0.00 0.00 0.02 0.03 0.04 0.01 0.00 0.11 0.25 0.02 0.00 0.00 0.00 0.00 0.00 0.00 0.00 0.00 0.00 0.00 0.00 0.00 0.00 0.00 0.00 0.00 0.00 0.00 0.00 0.00 0.00 0.00 0.00 0.00 0.00 0.01 0.03 0.11 0.06
0.01 0.01 0.00 0.00 0.00 0.00 0.01 0.02 0.02 0.02 0.03 0.05 0.05 0.04 0.00 0.01 0.08 0.13 0.06 0.02 0.00 0.00 0.00 0.00 0.00 0.00 0.00 0.00 0.00 0.00 0.00 0.00 0.00 0.00 0.00 0.00 0.00 0.00 0.00 0.01 0.02 0.02 0.00 0.01 0.05 0.16 0.07
0.00 0.01 0.01 0.01 0.01 0.00 0.00 0.00 0.01 0.04 0.04 0.05 0.04 0.02 0.02 0.06 0.02 0.01 0.03 0.09 0.07 0.04 0.00 0.00 0.00 0.00 0.00 0.00 0.00 0.00 0.00 0.00 0.00 0.00 0.00 0.00 0.00 0.00 0.00 0.00 0.01 0.01 0.01 0.00 0.03 0.07 0.08
0.01 0.00 0.00 0.00 0.00 0.01 0.01 0.00 0.01 0.04 0.05 0.05 0.03 0.01 0.01 0.04 0.08 0.10 0.02 0.00 0.00 0.03 0.02 0.01 0.00 0.00 0.00 0.00 0.00 0.00 0.00 0.00 0.00 0.00 0.00 0.00 0.00 0.00 0.00 0.00 0.00 0.00 0.00 0.00 0.01 0.03 0.03
0.00 0.01 0.01 0.01 0.01 0.01 0.00 0.00 0.01 0.05 0.06 0.02 0.01 0.01 0.05 0.03 0.02 0.10 0.16 0.06 0.00 0.00 0.00 0.00 0.01 0.01 0.00 0.00 0.00 0.00 0.00 0.00 0.00 0.00 0.01 0.00 0.00 0.00 0.00 0.00 0.00 0.00 0.00 0.00 0.00 0.03 0.03
0.01 0.01 0.01 0.01 0.01 0.01 0.00 0.00 0.00 0.03 0.05 0.02 0.01 0.04 0.07 0.02 0.01 0.00 0.00 0.08 0.11 0.02 0.00 0.00 0.00 0.04 0.01 0.00 0.00 0.00 0.00 0.00 0.00 0.00 0.00 0.00 0.00 0.01 0.01 0.01 0.01 0.00 0.00 0.00 0.00 0.01 0.03
0.00 0.01 0.01 0.01 0.01 0.02 0.03 0.02 0.01 0.01 0.05 0.04 0.03 0.04 0.15 0.11 0.01 0.00 0.00 0.00 0.03 0.05 0.01 0.00 0.01 0.02 0.04 0.05 0.02 0.00 0.00 0.00 0.00 0.00 0.00 0.00 0.00 0.00 0.02 0.03 0.02 0.00 0.00 0.00 0.01 0.04 0.01
0.00 0.00 0.01 0.01 0.02 0.06 0.15 0.18 0.11 0.01 0.01 0.05 0.02 0.05 0.09 0.16 0.03 0.00 0.00 0.00 0.00 0.02 0.02 0.02 0.05 0.06 0.07 0.04 0.00 0.00 0.00 0.00 0.00 0.00 0.00 0.00 0.00 0.00 0.00 0.05 0.03 0.00 0.00 0.00 0.01 0.06 0.03
0.00 0.00 0.00 0.01 0.01 0.02 0.09 0.12 0.10 0.02 0.00 0.03 0.01 0.03 0.06 0.09 0.00 0.00 0.00 0.01 0.02 0.02 0.02 0.03 0.04 0.01 0.02 0.04 0.00 0.00 0.00 0.00 0.03 0.05 0.02 0.00 0.00 0.01 0.00 0.01 0.01 0.00 0.00 0.00 0.02 0.06 0.01
0.00 0.00 0.00 0.00 0.01 0.01 0.03 0.07 0.05 0.01 0.01 0.02 0.01 0.02 0.03 0.01 0.00 0.00 0.00 0.00 0.00 0.02 0.08 0.10 0.06 0.02 0.00 0.00 0.00 0.00 0.02 0.03 0.03 0.07 0.09 0.02 0.01 0.02 0.01 0.01 0.00 0.00 0.00 0.01 0.01 0.00 0.00
0.00 0.00 0.00 0.00 0.00 0.01 0.02 0.06 0.08 0.03 0.01 0.03 0.01 0.01 0.03 0.04 0.00 0.00 0.00 0.00 0.00 0.03 0.05 0.10 0.16 0.17 0.04 0.02 0.02 0.03 0.03 0.05 0.04 0.04 0.09 0.12 0.00 0.01 0.00 0.00 0.04 0.02 0.02 0.02 0.02 0.00 0.00
MSLP
1022.21 1022.09 1021.92 1022.12 1022.19 1022.03 1021.69 1021.90 1021.73 1021.44 1021.24 1020.93 1020.61 1020.23 1020.11 1019.72 1019.38 1018.99 1018.35 1017.87 1017.42 1017.18 1016.87 1016.56 1016.20 1015.77 1015.34 1014.00 1010.54 1008.34 1007.75 1007.58 1007.83 1007.75 1007.74 1007.85 1007.87 1007.76 1007.13 1006.77 1006.69 1005.88 1005.20 1004.69 1003.96 1003.25 1002.80
1021.99 1021.93 1022.11 1021.89 1021.92 1021.75 1021.66 1021.57 1021.58 1021.36 1021.08 1020.87 1020.53 1020.12 1019.81 1019.63 1019.25 1018.60 1018.14 1017.40 1016.95 1016.51 1016.19 1016.04 1015.82 1015.79 1015.28 1013.59 1008.78 1007.84 1007.95 1007.57 1007.24 1007.14 1007.38 1007.37 1007.26 1007.15 1006.72 1006.19 1005.84 1005.23 1004.66 1003.92 1003.25 1002.73 1002.30
1021.82 1021.66 1021.66 1021.66 1021.52 1021.53 1021.44 1021.38 1021.41 1021.39 1021.08 1020.76 1020.49 1020.15 1019.72 1019.28 1018.89 1018.43 1017.76 1016.94 1016.21 1015.89 1015.45 1015.10 1015.51 1015.33 1014.37 1010.99 1008.28 1007.98 1008.03 1007.46 1007.15 1006.83 1006.96 1006.95 1007.03 1007.01 1006.62 1005.88 1005.22 1004.71 1004.38 1003.55 1002.69 1002.54 1002.12
1021.77 1021.64 1021.46 1021.44 1021.38 1021.28 1021.15 1021.16 1021.24 1021.04 1020.90 1020.67 1020.47 1020.13 1019.56 1019.09 1018.51 1017.96 1017.04 1016.09 1015.12 1014.70 1014.76 1014.38 1014.88 1014.70 1012.64 1009.01 1008.49 1008.13 1007.45 1007.00 1006.53 1006.54 1006.85 1006.80 1006.72 1006.67 1006.49 1005.83 1005.31 1004.83 1004.11 1003.51 1002.52 1002.18 1001.67
1021.53 1021.55 1021.52 1021.27 1021.31 1021.14 1021.06 1020.95 1020.88 1020.76 1020.45 1020.44 1020.29 1019.96 1019.44 1018.99 1018.00 1017.40 1016.61 1015.36 1013.93 1013.20 1013.47 1013.61 1014.10 1013.99 1011.20 1007.76 1007.83 1006.99 1007.12 1006.64 1006.27 1006.23 1006.49 1006.67 1006.75 1006.69 1006.52 1006.34 1006.09 1005.09 1004.49 1003.50 1002.53 1001.75 1001.49
1021.37 1021.37 1021.40 1021.31 1021.09 1021.02 1020.97 1020.86 1020.58 1020.49 1020.29 1020.21 1020.02 1019.76 1019.48 1018.82 1017.97 1017.08 1016.14 1014.70 1012.21 1012.03 1012.45 1012.52 1012.62 1013.28 1010.01 1007.33 1006.48 1006.52 1006.15 1006.23 1006.33 1006.51 1006.69 1006.87 1007.30 1006.95 1007.08 1007.07 1006.51 1005.78 1004.71 1003.79 1002.83 1001.72 1001.69
1021.21 1021.32 1021.17 1020.98 1020.87 1020.85 1020.76 1020.61 1020.46 1020.24 1020.32 1020.09 1019.72 1019.51 1019.31 1018.88 1017.95 1017.11 1016.43 1015.06 1012.91 1012.31 1012.44 1011.41 1010.72 1009.69 1007.91 1006.66 1006.61 1006.50 1006.18 1006.07 1006.41 1006.81 1007.29 1007.39 1007.68 1007.53 1007.51 1007.28 1006.97 1006.12 1004.97 1003.97 1003.00 1002.17 1002.48
1020.99 1021.06 1020.98 1020.94 1020.72 1020.56 1020.49 1020.29 1020.25 1020.09 1020.14 1019.97 1019.67 1019.26 1019.00 1018.62 1017.85 1016.88 1016.71 1015.69 1014.44 1014.31 1012.47 1010.68 1009.25 1008.61 1007.90 1007.72 1007.13 1006.09 1005.99 1006.44 1006.70 1007.18 1007.62 1007.91 1007.70 1007.81 1007.72 1007.82 1007.62 1006.21 1005.26 1004.19 1002.90 1002.12 1002.42
1020.91 1020.85 1020.66 1020.67 1020.45 1020.39 1020.36 1020.20 1020.02 1019.94 1020.01 1019.79 1019.56 1019.14 1018.92 1018.25 1017.73 1016.87 1016.19 1014.92 1014.02 1013.79 1013.57 1008.58 1007.03 1006.70 1006.45 1006.21 1006.43 1005.60 1005.82 1005.76 1006.57 1007.23 1007.71 1007.70 1007.59 1007.79 1007.94 1008.23 1007.91 1006.47 1005.21 1004.27 1003.60 1002.46 1001.79
1020.82 1020.64 1020.52 1020.26 1020.21 1020.23 1020.28 1020.09 1019.92 1019.82 1019.86 1019.63 1019.36 1019.09 1018.88 1018.14 1017.63 1017.17 1015.99 1014.79 1014.23 1013.99 1013.06 1008.01 1005.60 1004.52 1005.17 1005.17 1005.44 1004.98 1005.41 1005.90 1006.31 1007.13 1007.99 1008.10 1007.79 1007.94 1008.11 1007.91 1007.89 1006.90 1005.25 1004.16 1003.84 1003.36 1003.24
1020.75 1020.58 1020.36 1020.33 1020.14 1020.09 1019.99 1020.00 1019.79 1019.63 1019.58 1019.42 1019.21 1018.92 1018.90 1018.69 1018.57 1017.77 1016.22 1015.51 1014.54 1014.27 1011.71 1005.22 1004.41 1003.66 1004.14 1004.87 1004.31 1004.98 1005.15 1005.68 1006.29 1007.32 1008.45 1007.87 1008.09 1008.08 1007.74 1007.38 1007.75 1007.19 1005.91 1004.90 1004.58 1004.38 1003.96
1020.43 1020.48 1020.26 1020.18 1020.02 1020.00 1019.77 1019.66 1019.58 1019.40 1019.39 1019.16 1019.00 1018.97 1018.77 1018.39 1018.14 1017.21 1016.45 1015.80 1015.09 1014.23 1009.11 1004.60 1003.86 1003.67 1004.10 1004.19 1003.90 1004.73 1005.29 1005.79 1005.97 1007.00 1007.85 1007.67 1008.01 1007.92 1007.37 1007.51 1007.84 1007.27 1006.51 1005.66 1005.46 1005.28 1004.16
1020.30 1020.12 1020.12 1019.91 1019.75 1019.56 1019.51 1019.50 1019.26 1019.15 1019.10 1018.99 1018.73 1018.68 1018.79 1018.64 1018.11 1017.08 1016.90 1016.47 1015.44 1012.44 1006.39 1004.24 1003.58 1003.06 1003.24 1003.22 1003.79 1004.35 1005.27 1006.03 1006.48 1007.17 1007.44 1007.09 1006.81 1007.02 1007.38 1007.80 1007.29 1007.26 1007.69 1006.90 1006.27 1005.35 1003.70
1019.91 1019.85 1019.82 1019.50 1019.43 1019.32 1019.19 1019.22 1019.06 1018.89 1018.87 1018.72 1018.50 1018.48 1018.34 1018.18 1017.63 1017.41 1017.40 1017.01 1014.23 1009.66 1006.75 1004.06 1003.57 1003.27 1003.39 1003.07 1002.81 1003.89 1005.06 1005.84 1006.17 1006.75 1007.04 1006.67 1006.02 1005.80 1006.14 1006.73 1006.49 1006.71 1007.49 1007.20 1006.96 1006.46 1004.23
1019.48 1019.41 1019.54 1019.27 1019.17 1019.07 1019.04 1019.06 1018.90 1018.80 1018.75 1018.52 1018.31 1018.17 1017.95 1017.23 1017.10 1017.46 1017.85 1016.34 1012.43 1009.60 1007.08 1005.53 1004.29 1003.67 1003.31 1002.81 1002.99 1003.40 1004.07 1004.86 1005.49 1006.23 1006.81 1006.12 1005.57 1005.15 1005.43 1005.15 1005.76 1006.62 1006.90 1007.37 1008.24 1007.15 1005.64
1019.08 1019.10 1019.09 1018.96 1018.85 1018.83 1018.88 1018.86 1018.77 1018.70 1018.58 1018.38 1018.42 1017.87 1017.14 1016.13 1016.30 1017.25 1017.31 1014.88 1012.23 1009.83 1008.40 1006.80 1005.60 1004.34 1003.82 1003.27 1003.27 1003.61 1004.00 1004.74 1005.31 1005.60 1006.07 1006.01 1005.69 1004.46 1004.51 1005.01 1005.22 1006.67 1007.30 1008.34 1008.89 1007.34 1005.47
1018.82 1018.79 1018.63 1018.60 1018.61 1018.59 1018.63 1018.64 1018.60 1018.47 1018.39 1018.49 1018.60 1017.76 1015.47 1015.07 1016.11 1016.91 1015.99 1014.20 1012.56 1010.68 1009.54 1008.14 1006.88 1005.92 1005.16 1004.71 1004.33 1004.22 1004.42 1005.43 1005.61 1005.98 1006.08 1006.48 1006.39 1005.28 1004.63 1004.66 1004.80 1005.87 1006.93 1007.98 1008.04 1007.03 1005.16
1018.34 1018.25 1018.17 1018.23 1018.27 1018.26 1018.28 1018.33 1018.29 1018.30 1018.40 1018.63 1018.73 1017.67 1015.01 1014.54 1016.33 1015.87 1015.00 1013.77 1012.87 1011.10 1010.06 1008.97 1007.60 1007.14 1006.79 1006.16 1005.50 1005.26 1005.08 1005.52 1006.13 1006.50 1006.82 1007.28 1007.13 1005.83 1004.80 1004.46 1004.81 1005.11 1005.53 1006.92 1007.26 1006.54 1005.17
1017.82 1017.82 1017.83 1017.81 1017.82 1017.82 1017.84 1017.87 1017.92 1018.02 1018.27 1018.67 1018.41 1017.31 1015.27 1015.68 1015.59 1015.27 1014.48 1013.59 1012.95 1011.78 1010.55 1009.19 1008.22 1007.64 1007.41 1007.23 1006.96 1005.91 1005.71 1005.96 1006.32 1006.93 1007.47 1007.54 1007.54 1006.63 1005.06 1004.51 1004.59 1005.05 1005.17 1005.69 1006.74 1006.78 1005.59
1017.31 1017.34 1017.25 1017.27 1017.30 1017.33 1017.37 1017.42 1017.55 1017.64 1017.85 1018.55 1018.61 1017.59 1015.56 1015.38 1015.49 1015.34 1014.59 1013.35 1012.18 1011.12 1010.27 1009.51 1008.87 1008.53 1008.15 1007.77 1007.24 1006.98 1006.41 1006.80 1006.39 1007.05 1007.57 1007.74 1007.99 1007.80 1006.92 1006.08 1005.53 1005.25 1004.65 1005.03 1005.84 1005.98 1005.33
1016.75 1016.68 1016.66 1016.68 1016.76 1016.87 1016.89 1017.01 1017.17 1017.30 1017.60 1018.35 1018.31 1017.55 1016.17 1015.55 1015.65 1015.49 1014.71 1013.31 1012.14 1011.34 1009.96 1009.25 1008.98 1008.86 1008.65 1008.28 1007.66 1007.38 1006.88 1006.44 1006.54 1006.97 1007.86 1008.29 1008.61 1008.15 1007.60 1006.50 1005.35 1004.58 1004.63 1004.04 1004.54 1005.13 1004.99
1016.04 1016.11 1016.10 1016.13 1016.20 1016.28 1016.37 1016.45 1016.67 1016.84 1017.30 1017.97 1017.98 1017.61 1016.34 1015.85 1015.38 1015.18 1014.59 1012.61 1011.66 1011.24 1011.22 1009.52 1008.96 1008.71 1008.51 1008.38 1007.99 1007.90 1007.79 1007.65 1007.81 1008.04 1008.45 1008.79 1008.97 1008.41 1007.51 1006.49 1005.44 1003.98 1003.03 1002.21 1002.55 1003.72 1004.50
1015.38 1015.43 1015.42 1015.43 1015.50 1015.65 1015.72 1015.83 1016.07 1016.31 1016.82 1017.34 1017.45 1017.31 1017.53 1016.01 1015.42 1015.11 1013.96 1013.01 1011.58 1010.84 1010.20 1009.72 1009.89 1009.85 1009.10 1008.83 1008.31 1008.11 1008.29 1008.27 1008.38 1008.69 1009.01 1009.36 1009.27 1009.19 1008.06 1006.80 1005.50 1003.76 1002.10 1001.52 1001.75 1003.16 1003.64
1014.68 1014.67 1014.68 1014.74 1014.73 1014.80 1014.88 1015.03 1015.27 1015.62 1016.07 1016.76 1016.70 1016.90 1016.98 1015.69 1015.72 1014.60 1013.67 1012.84 1012.24 1011.59 1010.81 1009.67 1008.96 1009.88 1009.39 1009.23 1008.70 1008.26 1008.36 1008.44 1008.37 1008.55 1008.67 1009.25 1009.69 1009.71 1008.85 1007.29 1005.50 1002.66 1001.48 1000.53 1001.54 1002.16 1002.86
1013.82 1013.82 1013.83 1013.86 1013.85 1013.85 1013.97 1014.19 1014.41 1014.73 1015.15 1016.02 1016.18 1016.58 1016.48 1015.55 1014.93 1014.03 1013.12 1012.22 1011.40 1011.93 1010.92 1010.22 1009.50 1009.29 1009.86 1010.00 1009.83 1009.35 1008.92 1008.67 1008.18 1007.80 1008.16 1008.58 1009.40 1009.92 1009.54 1008.05 1005.74 1002.94 1001.14 1000.56 1001.49 1003.58 1003.33
1012.85 1012.86 1012.90 1012.92 1012.90 1012.90 1012.92 1013.05 1013.39 1013.84 1014.25 1015.12 1015.57 1015.91 1016.16 1015.72 1013.51 1013.59 1012.89 1012.26 1011.90 1011.77 1011.08 1010.28 1010.13 1010.22 1010.16 1011.15 1011.11 1010.75 1010.04 1008.98 1008.23 1007.36 1007.00 1007.99 1008.84 1009.57 1009.29 1008.28 1005.85 1003.08 1001.52 1000.72 1001.18 1003.60 1004.10
1011.88 1011.89 1011.91 1011.92 1011.91 1011.87 1011.91 1011.90 1011.70 1012.71 1013.38 1014.29 1014.75 1015.29 1015.93 1015.47 1014.00 1013.58 1013.22 1012.88 1012.82 1012.86 1012.37 1011.30 1011.23 1011.29 1011.33 1011.96 1012.03 1011.50 1010.74 1009.54 1008.61 1007.93 1007.87 1008.19 1008.73 1008.90 1009.07 1007.84 1005.48 1003.48 1002.17 1002.03 1003.00 1004.86 1004.66
1010.81 1010.79 1010.79 1010.84 1010.85 1010.87 1010.93 1010.92 1010.98 1011.81 1012.68 1013.53 1014.05 1014.47 1015.19 1015.02 1014.20 1013.59 1013.17 1013.24 1013.07 1013.09 1012.92 1012.39 1012.03 1011.76 1012.14 1012.34 1012.05 1011.41 1010.59 1009.30 1008.34 1007.59 1007.77 1008.05 1008.21 1008.25 1008.43 1007.54 1005.53 1002.90 1002.96 1003.73 1004.57 1004.94 1005.27
1009.65 1009.61 1009.60 1009.64 1009.70 1009.80 1009.90 1010.01 1010.27 1010.89 1011.85 1012.79 1013.69 1013.81 1014.40 1014.99 1013.88 1013.11 1012.74 1012.47 1012.58 1012.71 1012.98 1012.80 1012.41 1012.16 1012.05 1012.06 1011.67 1010.92 1010.33 1009.51 1008.59 1008.19 1008.04 1007.00 1006.74 1006.78 1006.74 1005.54 1004.76 1003.76 1003.63 1004.67 1005.08 1005.59 1006.65
Thickness
5547 5549 5551 5546 5543 5544 5546 5542 5543 5547 5549 5553 5556 5558 5558 5561 5564 5567 5573 5575 5578 5580 5585 5587 5590 5596 5599 5610 5635 5658 5664 5665 5661 5662 5656 5650 5642 5637 5636 5646 5647 5646 5663 5672 5685 5692 5694
5536 5535 5533 5534 5534 5535 5534 5534 5532 5535 5538 5540 5543 5547 5550 5549 5552 5558 5562 5569 5572 5576 5580 5581 5584 5585 5589 5593 5646 5651 5652 5655 5655 5654 5647 5643 5638 5638 5635 5640 5639 5655 5660 5669 5680 5686 5690
5525 5527 5525 5524 5525 5524 5525 5524 5522 5521 5525 5528 5530 5534 5538 5540 5543 5546 5552 5560 5566 5570 5575 5580 5576 5580 5583 5606 5638 5640 5641 5645 5647 5647 5638 5636 5634 5625 5627 5627 5645 5651 5643 5661 5673 5677 5679
5511 5511 5513 5513 5513 5513 5514 5514 5512 5513 5513 5516 5518 5521 5527 5531 5535 5540 5547 5556 5566 5569 5570 5575 5571 5575 5586 5621 5626 5629 5636 5638 5642 5639 5633 5631 5628 5621 5618 5630 5635 5632 5639 5631 5665 5676 5684
5500 5499 5499 5501 5500 5501 5501 5502 5503 5503 5506 5506 5507 5510 5515 5519 5529 5533 5541 5553 5565 5571 5569 5570 5567 5567 5588 5622 5620 5628 5628 5627 5631 5631 5627 5625 5617 5608 5607 5602 5604 5622 5610 5627 5651 5680 5680
5490 5488 5487 5488 5490 5490 5490 5490 5493 5494 5496 5498 5500 5501 5503 5509 5517 5526 5534 5548 5568 5571 5568 5568 5571 5563 5590 5609 5622 5621 5627 5624 5618 5615 5610 5605 5593 5588 5586 5584 5579 5598 5613 5626 5640 5670 5671
5480 5478 5479 5480 5480 5480 5480 5481 5482 5485 5484 5487 5492 5494 5494 5497 5506 5514 5521 5533 5549 5559 5556 5570 5578 5586 5599 5612 5613 5609 5614 5614 5609 5602 5584 5589 5572 5568 5576 5588 5597 5606 5612 5621 5638 5662 5648
5471 5469 5469 5468 5470 5471 5472 5474 5474 5475 5474 5477 5481 5485 5486 5488 5495 5504 5507 5514 5530 5529 5540 5563 5579 5584 5590 5592 5590 5601 5607 5595 5593 5580 5581 5573 5563 5574 5582 5580 5579 5598 5603 5612 5642 5660 5647
5460 5460 5461 5460 5461 5461 5462 5463 5464 5466 5465 5467 5470 5474 5476 5483 5486 5493 5500 5510 5520 5523 5514 5569 5587 5588 5590 5594 5586 5594 5597 5597 5586 5578 5575 5571 5570 5572 5568 5563 5568 5586 5599 5614 5626 5645 5649
5449 5450 5451 5453 5453 5453 5452 5454 5455 5456 5455 5457 5461 5464 5465 5472 5479 5478 5489 5501 5508 5511 5507 5562 5585 5594 5590 5592 5584 5597 5595 5589 5585 5574 5566 5561 5566 5562 5559 5564 5569 5568 5605 5620 5625 5625 5605
5442 5443 5444 5444 5445 5444 5444 5443 5445 5446 5445 5447 5450 5452 5452 5457 5457 5461 5478 5484 5496 5498 5493 5583 5585 5596 5591 5580 5591 5585 5591 5583 5571 5566 5554 5559 5553 5553 5555 5569 5565 5565 5589 5598 5604 5598 5603
5437 5436 5436 5436 5436 5435 5434 5434 5434 5434 5434 5436 5439 5439 5440 5446 5447 5457 5463 5472 5481 5485 5501 5570 5579 5574 5573 5577 5585 5581 5576 5578 5578 5566 5554 5558 5551 5550 5561 5565 5557 5573 5573 5591 5594 5595 5582
5429 5430 5428 5427 5426 5427 5425 5423 5424 5423 5423 5423 5427 5428 5426 5429 5430 5445 5446 5456 5466 5477 5558 5561 5568 5577 5575 5577 5573 5574 5565 5556 5552 5546 5547 5558 5557 5556 5550 5545 5558 5563 5552 5563 5574 5578 5578
5422 5421 5420 5421 5418 5416 5415 5411 5410 5410 5409 5409 5412 5413 5415 5416 5420 5426 5429 5439 5458 5521 5541 5568 5566 5567 5562 5572 5578 5566 5557 5547 5553 5552 5547 5549 5545 5561 5557 5553 5559 5560 5552 5562 5565 5568 5593
5416 5414 5411 5411 5409 5407 5403 5398 5397 5394 5392 5392 5395 5398 5404 5406 5409 5408 5409 5423 5475 5511 5530 5536 5548 5550 5556 5569 5572 5566 5559 5552 5555 5552 5543 5550 5553 5565 5562 5572 5569 5554 5551 5573 5550 5569 5570
5408 5406 5403 5401 5399 5395 5390 5386 5383 5380 5378 5379 5380 5386 5394 5399 5399 5392 5394 5424 5466 5492 5501 5516 5522 5543 5546 5555 5558 5559 5554 5557 5554 5557 5555 5552 5546 5571 5570 5565 5567 5553 5561 5540 5539 5559 5569
5400 5396 5395 5392 5387 5383 5379 5374 5370 5367 5367 5366 5365 5372 5390 5396 5387 5377 5386 5418 5450 5473 5480 5496 5508 5516 5527 5533 5541 5545 5547 5541 5545 5546 5547 5545 5543 5552 5566 5561 5561 5556 5546 5543 5552 5567 5580
5391 5389 5386 5381 5377 5373 5368 5363 5359 5356 5355 5354 5354 5362 5385 5387 5368 5376 5388 5419 5437 5454 5465 5475 5493 5501 5505 5515 5523 5530 5534 5532 5536 5537 5531 5531 5530 5540 5556 5565 5563 5562 5565 5551 5549 5565 5584
5384 5381 5377 5373 5368 5364 5358 5353 5350 5348 5345 5343 5348 5355 5374 5371 5369 5376 5394 5410 5418 5430 5445 5470 5480 5492 5497 5498 5501 5521 5527 5525 5528 5528 5521 5525 5525 5530 5548 5562 5562 5555 5563 5565 5556 5558 5565
5376 5372 5369 5364 5359 5354 5349 5344 5342 5340 5337 5333 5335 5345 5361 5364 5364 5371 5385 5400 5417 5438 5446 5458 5467 5475 5482 5487 5498 5502 5512 5511 5525 5519 5520 5522 5521 5521 5527 5537 5545 5542 5557 5562 5555 5551 5563
5368 5364 5360 5355 5349 5345 5340 5337 5334 5332 5329 5324 5327 5330 5351 5336 5347 5357 5370 5395 5402 5418 5444 5455 5458 5464 5471 5475 5487 5490 5503 5508 5518 5515 5512 5512 5503 5518 5523 5536 5548 5552 5545 5563 5556 5556 5560
5361 5356 5351 5347 5341 5336 5334 5332 5329 5326 5321 5316 5320 5320 5338 5346 5354 5351 5362 5391 5408 5421 5408 5439 5454 5462 5469 5471 5477 5481 5483 5489 5492 5500 5499 5504 5500 5512 5522 5534 5541 5553 5565 5579 5580 5569 5558
5353 5348 5343 5339 5334 5332 5330 5327 5324 5320 5315 5310 5313 5318 5313 5337 5346 5349 5365 5384 5407 5420 5430 5436 5433 5433 5446 5461 5467 5475 5478 5482 5489 5489 5490 5489 5498 5495 5507 5523 5530 5543 5566 5576 5578 5567 5567
5345 5341 5336 5331 5331 5329 5327 5325 5323 5319 5314 5309 5311 5311 5305 5320 5330 5352 5369 5383 5381 5393 5410 5431 5443 5425 5445 5449 5462 5471 5474 5477 5481 5482 5487 5482 5485 5490 5489 5511 5524 5562 5573 5586 5576 5574 5569
5339 5335 5330 5329 5329 5328 5327 5326 5324 5321 5316 5310 5308 5306 5307 5317 5332 5351 5367 5381 5396 5381 5400 5413 5432 5440 5438 5440 5443 5451 5442 5466 5473 5486 5486 5486 5479 5464 5474 5500 5526 5552 5571 5576 5561 5546 5562
5334 5329 5328 5328 5328 5329 5330 5329 5327 5324 5319 5311 5308 5307 5308 5313 5337 5350 5360 5375 5377 5381 5396 5411 5419 5420 5431 5418 5413 5429 5433 5464 5472 5487 5492 5486 5476 5464 5469 5488 5514 5547 5564 5576 5572 5538 5546
5329 5329 5329 5329 5330 5332 5333 5333 5336 5329 5321 5313 5309 5306 5305 5315 5332 5342 5347 5356 5369 5369 5375 5399 5405 5411 5411 5397 5411 5411 5417 5459 5448 5468 5470 5466 5462 5467 5465 5476 5507 5537 5554 5561 5538 5533 5544
5330 5331 5332 5333 5334 5335 5336 5337 5338 5332 5323 5315 5312 5309 5309 5313 5330 5339 5348 5350 5360 5368 5372 5385 5396 5404 5403 5387 5404 5416 5416 5446 5460 5474 5471 5460 5460 5460 5464 5465 5491 5544 5546 5531 5528 5535 5535
5333 5335 5336 5338 5339 5339 5340 5340 5340 5336 5327 5319 5311 5314 5314 5314 5328 5341 5350 5359 5363 5370 5371 5376 5388 5394 5404 5405 5413 5423 5424 5432 5458 5453 5459 5471 5478 5465 5478 5488 5516 5526 5530 5523 5524 5522 5517